Cabot Strait: Past 24 Hour Conditions

 

J.A. Douglas McCurdy Sydney Airport

12:00 PM ADT 28 July 2015
Disclaimer

This table is a summary of hourly weather conditions for the past 24 hours.
Please note that these observations might not always be representative of weather conditions over their associated marine area.

Date / Time
(ADT)
Wind(knots) Conditions Visibility(km) Pressure(kPa) Air tempC) Relative humidity(%) Dew pointC)
28 July 2015
12:00 S 11 gust 16 Light Rainshower 6 101.7 18 97 17
11:00 S 10 Light Rainshower 8 101.7 18 97 18
10:00 SSW 11 gust 16 Mist 2 101.7 18 97 18
9:00 SSW 11 Light Drizzle 4 101.7 18 98 18
8:00 SSW 9 Mist 8 101.8 18 97 17
7:00 S 8 Fog 0.8 101.8 17 99 17
6:00 SSW 7 Mist 1 101.8 16 99 16
5:00 SSW 8 Mist 6 101.8 16 98 16
4:00 S 8 Mist 10 101.8 16 97 15
3:00 S 10 Mist 10 101.9 16 97 15
2:00 S 8 Mist 10 101.9 16 97 15
1:00 SSW 7 Mist 10 102.0 16 96 15
0:00 S 8 Light Drizzle 16 102.0 15 96 15
27 July 2015
23:00 S 9 gust 18 Light Drizzle 16 102.0 15 96 15
22:00 S 6 Cloudy 16 102.1 15 93 14
21:00 S 6 Mostly Cloudy 81 102.1 15 93 14
20:00 S 10 Cloudy 16 102.1 15 92 14
19:00 S 10 Cloudy 16 102.1 15 91 14
18:00 S 10 Mostly Cloudy 16 102.1 15 94 14
17:00 SSE 10 Light Rain 6 102.1 14 95 14
16:00 S 9 Light Rain 13 102.2 14 93 13
15:00 S 14 gust 19 Light Rain 13 102.2 15 88 13
14:00 S 11 gust 18 Light Rain 13 102.2 15 87 13
13:00 S 12 Cloudy 24 102.2 16 81 13
12:00 S 13 gust 19 Mostly Cloudy 16 102.2 16 77 12

Zoom-in to make a selection

Map of Atlantic - Newfoundland marine weather areas Southwestern Grand Banks - 44138 Banquereau - 44139 Tail of the Bank - 44140 Nickerson Bank - 44251 Northeast Burgeo Bank - 44255 Blanc-Sablon Airport Cap Whittle Chevery Natashquan Airport Heath Point Miscou Island Grand Étang Ingonish Beach North Mountain St.Paul Island J.A. Douglas McCurdy Sydney Airport Charlottetown Airport East Point North Cape Argentia Bonavista Burgeo Cape Race Corner Brook Daniel's Harbour Englee Ferolle Point La Scie Port aux Basques Rocky Harbour Sagona Island St. Anthony Airport St. John's Int'l Airport St. Lawrence Stephenville Airport Twillingate Winterland Wreckhouse Cartwright Airport Mary's Harbour Grates Cove Pool's Island Marticot Island Long Pond Eskasoni (First Nations) Îles de la Madeleine Airport
Legend:
buoy Buoy
land station Land Station

Atlantic - Newfoundland Area

Another Region

What we are doing

Date modified: